STARLINK-1820 (46717 NORAD) Tracking and Keplerian Element Data

This shows tracking and keplerian element data for the satellite.

Feedback or suggestion? Click here.




ElementValue
Catalog46717
NameSTARLINK-1820
Epoch Orbit776
Epoch Day338.83334491
Epoch Year2020
RAAN241.6319
Inclination53.0538
Eccentricity0.000136
Argument of Perigee69.8648
Mean Anonmoly355.6765
Mean Motion15.62804593
Decay Rate-0.000679
L11 46717U 20073AZ 20338.83334491 -.00067900 00000-0 -74043-3 0 9993
L22 46717 53.0538 241.6319 0001360 69.8648 355.6765 15.62804593 7768

Live tracking and technical data element details for STARLINK-1820 (NORAD 46717). STARLINK-1820 can be tracked NOW for your location showing map with azimuth and elevation plus other details from your city location.

Track the satellite on the map from your city or location and see movement details for azimuth, elevation, latitude, longitude, range, height, and movement on the map or in text.







IsCatalogInMostPopularTable: catalog: 46717, numindb: 11
Update: records affected: 1



GetName: 46717 STARLINK-1820

Hit Count: updated at: Sun, 06 Dec 2020 01:14:11 GMT